Terminal Aerodrome Forecast
Issued by NWS Portland, OR

Home | Current Version | Previous Version | Text Only | Print | Product List | Glossary On
Versions: 1 2 3 4 5 6 7 8 9 10 11 12 13 14 15 16 17 18 19 20 21 22 23 24 25 26 27 28 29 30 31 32 33 34 35 36 37 38 39 40 41 42 43 44 45 46
000
FTUS46 KPQR 220520
TAFAST
TAF
KAST 220520Z 2206/2306 25006KT P6SM BKN030 OVC050
     FM220700 18003KT P6SM OVC020
     FM221000 16003KT 2SM BR OVC005
     FM221400 VRB03KT 4SM BR BKN012
     FM221800 30009KT P6SM SCT015 BKN040=

USA.gov is the U.S. government's official web portal to all federal, state and local government web resources and services.